Location: Trois-Rivi�res
(46.3500°N, 72.5500°W)
Time: 22:57:50
(UTC-04:00)

Tiangong 2 - Visible Passes

Search period start: 15 August 2018 00:00
Search period end: 25 August 2018 00:00
Orbit: 384 x 395 km, 42.8° (Epoch: 15 August)

Date Brightness Start Highest point End Pass type
(mag) Time Alt. Az. Time Alt. Az. Time Alt. Az.
18 Aug 2.9 05:02:10 10° SSW 05:04:45 22° SSE 05:07:19 10° ESE visible
19 Aug 3.2 04:06:56 16° SSE 04:07:04 16° SSE 04:09:07 10° ESE visible
20 Aug 2.3 04:44:02 19° SW 04:45:41 31° SSE 04:48:34 10° E visible
21 Aug 3.0 03:48:48 21° SE 03:48:48 21° SE 03:50:35 10° ESE visible
21 Aug 1.7 05:21:23 10° WSW 05:24:26 43° S 05:27:31 10° ESE visible
22 Aug 1.8 04:25:53 32° SSW 04:26:39 38° S 04:29:39 10° E visible
23 Aug 3.4 03:30:41 18° ESE 03:30:41 18° ESE 03:31:46 10° E visible
23 Aug 1.6 05:03:00 15° WSW 05:05:25 43° S 05:08:29 10° ESE visible
24 Aug 1.7 04:07:51 42° SSE 04:07:51 42° SSE 04:10:41 10° ESE visible
